Simultaneous Nadir Overpasses (SNOs) Predictions

Prediction of SNOs between GOES-17 and TERRA Satellite Orbit:

Table of predicted SNOs for the next 14.0 days since TLE Epoch: 2/24/2024
Index Date Time (GOES-17) GOES-17 Lat,Lon TERRA Lat,Lon Distance(km) Time Diff (sec)
1 02/25/2024 16:36:37 -0.00,-104.68 -0.84,-100.55 468.22 80
2 02/26/2024 04:56:48 0.00,-104.67 -0.17,-105.46 89.58 80
3 02/28/2024 04:37:11 0.00,-104.67 0.70,-101.37 375.32 80
4 02/28/2024 16:57:13 -0.00,-104.68 0.32,-106.24 178.05 80
5 03/01/2024 16:42:55 -0.01,-104.68 -0.51,-102.15 286.75 80
6 03/02/2024 05:03:06 0.01,-104.68 -0.47,-107.06 270.62 80
7 03/04/2024 04:43:28 0.02,-104.67 0.39,-102.97 193.62 80
8 03/04/2024 17:03:29 -0.02,-104.66 0.63,-107.84 360.54 80
9 03/06/2024 16:49:11 -0.02,-104.65 -0.25,-103.75 103.73 80
10 03/07/2024 05:09:20 0.03,-104.66 -0.83,-108.64 453.19 80
